Regional Weather Roundup
Issued by NWS Charleston, SC

Current Version | Previous Version | Text Only | Print | Product List | Glossary Off
Versions: 1 2 3 4 5 6 7 8 9 10 11 12 13 14 15 16 17 18 19 20 21 22 23 24 25 26 27 28 29 30 31 32 33 34 35 36 37 38 39 40 41 42 43 44 45 46 47 48 49 50
000 ASUS42 KCHS 100927 RWRCHS REGIONAL WEATHER ROUNDUP NATIONAL WEATHER SERVICE CHARLESTON SC 400 AM EST WED FEB 10 2016 NOTE: "FAIR" INDICATES FEW OR NO CLOUDS BELOW 12,000 FEET WITH NO SIGNIFICANT WEATHER AND/OR OBSTRUCTIONS TO VISIBILITY. NOT ALL STATIONS ARE QUALITY CONTROLLED BY THE NATIONAL WEATHER SERVICE. USE DATA WITH CAUTION...ESPECIALLY DEWPOINT OBSERVATIONS. SCZ027-030-031-034>040-042>050-101000- ...SOUTHEAST SOUTH CAROLINA... CITY SKY/WX TMP DP RH WIND PRES REMARKS N CHARLESTON CLEAR 33 16 49 W14G22 29.99R WCI 23 WATERFRONT PRK N/A 34 20 56 W7 29.83R WCI 28 MOUNT PLEASANT FAIR 34 19 55 W8 29.99R WCI 27 JOHNS ISLAND FAIR 34 18 51 W10G18 30.00S WCI 26 PINOPOLIS N/A 34 21 60 W15 29.88R WCI 24 MONCKS CORNER FAIR 28 14 54 W5 29.98R WCI 23 SUMMERVILLE FAIR 32 21 64 W8 30.00R WCI 25 BEAUFORT MCAS CLEAR 33 19 56 W10 30.03R WCI 25 BEAUFORT ARPT FAIR 34 21 60 W10G16 30.02S WCI 26 HILTON HEAD IS CLEAR 34 23 64 W7 30.04S WCI 28 WALTERBORO MOSUNNY 32 23 69 W10 30.01S WCI 24 ALLENDALE FAIR 30 19 64 VRB3G12 30.00S ...SOUTHERN MIDLANDS AND PEE DEE... CITY SKY/WX TMP DP RH WIND PRES REMARKS GEORGETOWN NOT AVBL KINGSTREE NOT AVBL ORANGEBURG CLEAR 30 16 56 W10 29.97R WCI 21 BARNWELL FAIR 32 19 59 W12 29.99S WCI 23 AIKEN FAIR 27 14 59 W12G22 29.99R WCI 16 MANNING FAIR 32 14 47 SW5 29.97R WCI 27 COLUMBIA CLEAR 29 14 53 W9 29.96R WCI 20 SUMTER CLEAR 28 18 65 W12 29.92R WCI 18 FLORENCE PTCLDY 32 23 69 SW10 29.92R WCI 24 MYRTLE BEACH CLEAR 34 18 51 W14G20 29.96R WCI 24 N MYRTLE BEACH PTCLDY 33 23 66 W8 29.91R WCI 26 $$ GAZ063-065-086>088-099>101-113>116-118-119-134>141-150-101000- ...SOUTHEAST GEORGIA... CITY SKY/WX TMP DP RH WIND PRES REMARKS SAVANNAH ARPT CLEAR 29 21 72 W6 30.04F WCI 23 HUNTER AAF CLEAR 29 22 75 W6 30.02S WCI 23 FORT STEWART CLEAR 29 23 76 W3 30.03S STATESBORO CLEAR 33 20 58 W7 30.04R WCI 27 SYLVANIA SUNNY 32 24 73 W5 30.04R WCI 27 CLAXTON FAIR 31 26 80 SW5 30.05S WCI 26 ...CSRA...CENTRAL AND FAR SOUTHEAST GEORGIA... CITY SKY/WX TMP DP RH WIND PRES REMARKS THOMSON CLOUDY 30 21 69 W7 30.04S WCI 23 AUGUSTA-BUSH CLEAR 28 17 63 W10 30.01R WCI 19 AUGUSTA-DANIEL PTCLDY 29 14 53 W10G17 29.99R WCI 20 SWAINSBORO FAIR 28 23 80 W6 30.05R WCI 22 VIDALIA CLEAR 32 23 69 W8 30.05S WCI 25 EASTMAN FAIR 30 22 71 NW8 30.10R WCI 23 HAZLEHURST FAIR 31 26 81 CALM 30.06S ALMA CLEAR 32 23 69 W6 30.07S WCI 26 WAYCROSS CLEAR 32 28 86 W3 30.09R JESUP FAIR 32 30 93 W3 30.08R BAXLEY FAIR 32 27 80 W3 30.07R BRUNSWICK CLEAR 32 28 86 W3 30.08R SAINT SIMONS CLEAR 35 26 69 W6 30.06F WCI 30 $$ SCZ027-028-034-036>038-045-046-048>050-GAZ119-141-101000- ...LAKE AND SUPPLEMENTAL COASTAL OBSERVATIONS... STATION/POSITION TIME TEMP WIND PRES WAVE SWELL AIR SEA DIR/SP/G HT/PER HT/PER/DIR (UTC) (F) (DEG/KT/KT) (MB) (FT/S) (FT/S/D) WINYAH BAY 0800 34 270/ 8 1012.0 LAKE MURRAY 0800 31 260/ 16/ 21 1012.5S ACE BASIN NERRS 0800 33 260/ 5 1016.0 FORT PULASKI 0900 34 50 250/ 8/ 11 1017.2F SAPELO ISLAND 0900 36 260/ 7 1018.0S $$ ANZ835-935-AMZ111-154-330-350-352-354-370-450-454-472-101000- ...C-MAN AND BUOY OBSERVATIONS... STATION/POSITION TIME TEMP WIND PRES WAVE SWELL AIR SEA DIR/SP/G HT/PER HT/PER/DIR (UTC) (F) (DEG/KT/KT) (MB) (FT/S) (FT/S/D) BUOY 41004 0850 42 63 270/ 27/ 33 1013.7R 9/ 7 2/11 BUOY 41008 0850 41 54 300/ 17/ 23 1017.2F 3/ 4 FOLLY BEACH CMAN 0900 33 260/ 9/ 12 1015.7R CAPERS NEARSHORE 0808 37 280/ 21/ 33 1014.1F FRIPP NEARSHORE 0800 38 300/ 21/ 23 1016.2R STATION/POSITION TIME TEMP WIND PRES WAVE SWELL AIR SEA DIR/SP/G HT/PER HT/PER/DIR (UTC) (F) (DEG/KT/KT) (MB) (FT/S) (FT/S/D) 5E ST. MARYS GA 0821 56 N/A 3/15 2/ 90/15 FRYING PAN BUOY 0900 42 57 280/ 23/ 31 1012.0R BUOY 41025 0850 43 73 290/ 25/ 33 1007.5F 8/15 5/ 90/15 CAPE LOOKOUT NC NOT AVBL BUOY 41002 0850 54 68 290/ 29/ 41 N/A 16/11 13/260/11 BUOY 41010 0820 59 72 1016.0R ST AUGUSTINE FL 0900 38 56 240/ 4/ 5 1020.2F $$

USA.gov is the U.S. government's official web portal to all federal, state and local government web resources and services.